Weather History for KLWM - October, 2012

Change the Weather History Date:

Wednesday, October 10, 2012

  Actual Average Record
Temperature  
Mean Temperature 56 °F -  
Max Temperature 61 °F 62 °F 85 °F (1939)
Min Temperature 50 °F 41 °F 27 °F (1929)
Degree Days  
Heating Degree Days 10    
Growing Degree Days 6 (Base 50)    
Moisture  
Dew Point 52 °F    
Average Humidity 87    
Maximum Humidity 94    
Minimum Humidity 76    
Precipitation  
Precipitation 0.16 in - - ()
Sea Level Pressure  
Sea Level Pressure 29.91 in    
Wind  
Wind Speed 6 mph (ENE)    
Max Wind Speed 9 mph    
Max Gust Speed 17 mph    
Visibility 6 miles    
Events Rain    
Averages and records for this station are not official NWS values.
T = Trace of Precipitation, MM = Missing Value Source: NWS Daily Summary

Daily Weather History Graph

Daily Weather History Graph

Search for Another Location

Airport or City:

Trip Planner

Search our weather history database for the weather conditions in past years. The results will help you decide how hot, cold, wet, or windy it might be!

Date:

Astronomy

Oct. 10, 2012 Rise Set
Actual Time 6:52 AM EDT 6:09 PM EDT
Civil Twilight 6:24 AM EDT 6:37 PM EDT
Nautical Twilight 5:51 AM EDT 7:10 PM EDT
Astronomical Twilight 5:18 AM EDT 7:43 PM EDT
Moon 1:18 AM EDT (10/10) 3:16 PM EDT (10/10)
Length of Visible Light 12h 13m
Length of Day
11h 17m
Waning Crescent, 27% of the Moon is Illuminated
Oct 10
Waning Crescent
Oct 15
New
Oct 21
First Quarter
Oct 29
Full
Nov 6
Last Quarter

Hourly Weather History & Observations

Time (EDT) Temp. Dew Point Humidity Pressure Visibility Wind Dir Wind Speed Gust Speed Precip Events Conditions
12:39 AM 51.8 °F 44.6 °F 76% 30.13 in 10.0 mi ENE 9.2 mph - N/A   Overcast
12:54 AM 50.0 °F 45.0 °F 83% 30.14 in 10.0 mi NE 3.5 mph - N/A   Mostly Cloudy
1:54 AM 51.1 °F 45.0 °F 80% 30.15 in 10.0 mi NW 3.5 mph - N/A   Overcast
2:54 AM 51.1 °F 45.0 °F 80% 30.13 in 10.0 mi North 3.5 mph - N/A   Overcast
3:14 AM 50.0 °F 44.6 °F 82% 30.12 in 10.0 mi North 3.5 mph - N/A   Overcast
3:32 AM 50.0 °F 44.6 °F 82% 30.12 in 10.0 mi NE 4.6 mph - N/A   Overcast
3:54 AM 50.0 °F 45.0 °F 83% 30.12 in 10.0 mi NNE 6.9 mph - N/A   Overcast
4:54 AM 50.0 °F 45.0 °F 83% 30.11 in 10.0 mi NNE 3.5 mph - N/A   Overcast
5:11 AM 50.0 °F 46.4 °F 87% 30.09 in 10.0 mi Calm Calm - N/A   Overcast
5:50 AM 51.8 °F 46.4 °F 82% 30.09 in 10.0 mi Calm Calm - N/A   Overcast
5:54 AM 50.0 °F 46.0 °F 86% 30.10 in 10.0 mi WNW 3.5 mph - N/A   Overcast
6:25 AM 50.0 °F 46.4 °F 87% 30.09 in 2.5 mi NNW 3.5 mph - 0.00 in Rain Light Rain
6:44 AM 50.0 °F 46.4 °F 87% 30.09 in 7.0 mi NE 5.8 mph - 0.00 in   Overcast
6:54 AM 50.0 °F 46.9 °F 89% 30.08 in 5.0 mi NNE 8.1 mph - 0.00 in   Overcast
7:54 AM 50.0 °F 48.0 °F 93% 30.07 in 8.0 mi NNE 4.6 mph - N/A   Overcast
8:01 AM 50.0 °F 48.2 °F 94% 30.07 in 6.0 mi North 4.6 mph - N/A   Overcast
8:54 AM 52.0 °F 48.9 °F 89% 30.06 in 6.0 mi NE 5.8 mph - N/A   Overcast
9:54 AM 53.1 °F 50.0 °F 89% 30.04 in 4.0 mi NNE 5.8 mph - 0.00 in   Overcast
10:54 AM 54.0 °F 51.1 °F 90% 30.01 in 3.0 mi East 4.6 mph - N/A   Overcast
11:54 AM 57.0 °F 53.1 °F 87% 29.97 in 10.0 mi East 6.9 mph - 0.03 in   Overcast
12:54 PM 57.9 °F 55.0 °F 90% 29.92 in 5.0 mi East 8.1 mph - 0.01 in Rain Light Rain
1:27 PM 57.2 °F 55.4 °F 94% 29.90 in 2.0 mi East 5.8 mph - 0.01 in Rain Light Rain
1:54 PM 59.0 °F 55.0 °F 87% 29.88 in 2.0 mi East 5.8 mph - 0.03 in Rain Light Rain
2:09 PM 59.0 °F 55.4 °F 88% 29.86 in 5.0 mi East 4.6 mph - 0.01 in Rain Light Rain
2:54 PM 59.0 °F 55.9 °F 90% 29.83 in 2.5 mi East 6.9 mph - 0.02 in Rain Light Rain
3:02 PM 59.0 °F 55.4 °F 88% 29.83 in 2.0 mi East 5.8 mph - 0.00 in Rain Light Rain
3:12 PM 59.0 °F 55.4 °F 88% 29.82 in 7.0 mi East 5.8 mph - 0.00 in   Overcast
3:26 PM 60.8 °F 57.2 °F 88% 29.81 in 2.0 mi ESE 8.1 mph - 0.00 in   Overcast
3:51 PM 60.8 °F 57.2 °F 88% 29.79 in 2.0 mi ESE 6.9 mph - 0.00 in   Overcast
3:54 PM 61.0 °F 57.0 °F 87% 29.79 in 2.0 mi ESE 9.2 mph - 0.00 in   Overcast
4:14 PM 60.8 °F 57.2 °F 88% 29.77 in 4.0 mi ESE 5.8 mph 17.3 mph 0.01 in Rain Light Rain
4:25 PM 60.8 °F 57.2 °F 88% 29.77 in 2.0 mi SE 8.1 mph - 0.02 in Rain Light Rain
4:43 PM 60.8 °F 57.2 °F 88% 29.76 in 3.0 mi SE 6.9 mph - 0.02 in Rain Light Rain
4:54 PM 61.0 °F 57.9 °F 90% 29.75 in 3.0 mi Variable 5.8 mph - 0.03 in Rain Light Rain
5:04 PM 60.8 °F 57.2 °F 88% 29.75 in 2.0 mi Variable 4.6 mph - 0.01 in Rain Light Rain
5:44 PM 60.8 °F 57.2 °F 88% 29.74 in 1.8 mi Variable 4.6 mph - 0.02 in Rain Light Rain
5:54 PM 61.0 °F 57.9 °F 90% 29.74 in 1.5 mi South 4.6 mph - 0.03 in Rain Light Rain
6:06 PM 60.8 °F 57.2 °F 88% 29.74 in 2.5 mi Variable 3.5 mph - 0.01 in Rain Rain
6:13 PM 60.8 °F 57.2 °F 88% 29.74 in 6.0 mi SW 4.6 mph - 0.01 in Rain Light Rain
6:28 PM 60.8 °F 57.2 °F 88% 29.74 in 10.0 mi SW 3.5 mph - 0.01 in   Overcast
6:54 PM 61.0 °F 57.9 °F 90% 29.73 in 8.0 mi SSW 4.6 mph - 0.01 in   Overcast
7:30 PM 60.8 °F 57.2 °F 88% 29.73 in 10.0 mi WSW 5.8 mph - N/A   Overcast
7:54 PM 60.1 °F 57.0 °F 90% 29.73 in 10.0 mi SW 8.1 mph - N/A   Mostly Cloudy
8:41 PM 59.0 °F 55.4 °F 88% 29.73 in 10.0 mi SW 8.1 mph - N/A   Mostly Cloudy
8:54 PM 59.0 °F 55.0 °F 87% 29.74 in 10.0 mi WSW 9.2 mph - N/A   Mostly Cloudy
9:54 PM 57.0 °F 53.1 °F 87% 29.75 in 10.0 mi SW 8.1 mph - N/A   Partly Cloudy
10:54 PM 55.9 °F 52.0 °F 87% 29.77 in 10.0 mi SW 6.9 mph - N/A   Partly Cloudy
11:54 PM 55.9 °F 51.1 °F 84% 29.79 in 10.0 mi WSW 9.2 mph 16.1 mph N/A   Overcast